Content
SEND FEEDBACK

Daily
Averages
Monthly
Summary
United States of America

MAURICEVILLE, TEXAS


Home > North America > United States > Texas
Elevation: 20 feet     Latitude: 30 14N     Longitude: 093 44W

WEATHER
 
SELECT A DAY
Number of Records: 109,616;   Date Range: 8/25/05 - 8/29/14
 
SHARE

PRINT THIS DATA

[ ← Previous Day ]
WEATHER ALMANAC - APRIL 1, 2013
[ Next Day → ]
[ °C ]   °F
Weather ElementAverageHighLow
Temperature66.4 °F78.6 °F (4:35 pm)57.2 °F (5:35 am)
Dewpoint60.3 °F63.9 °F (7:15 pm)56.7 °F (5:35 am)
Humidity82.6 %99 % (5:15 am)52 % (5:55 pm)
Barometer30.03 in30.11 in (9:55 am)29.98 in (3:15 am)
Wind Speed0.1 mph4.6 mph (12:15 pm)
Weather ElementAverage
Visibility7.7 mi
Wind DirectionN (1.2 °)

Weather ElementTotal
Precipitation---
Cooling Degree Days2.9 (Base 65)
Growing Degree Days17.9 (Base 50)
Averaged from 68 records on April 1, 2013
WEATHER CONDITIONS BREAKOUT
WIND DIRECTION BREAKOUT
WEATHER BY HOUR - APRIL 1, 2013
[ °C ]   °F
Local TimeTemperatureDewpointHumidityBarometerVisibilityWind DirectionWind SpeedGust SpeedPrecipitationEventsConditions
12:35 AM59.9 °F59.2 °F97 %30.00 in0.8 miCalmOvercast
12:55 AM59.9 °F59.2 °F97 %30.00 in0.8 miCalmOvercast
1:15 AM59.5 °F59.0 °F98 %30.00 in0.8 miCalmOvercast
1:35 AM59.9 °F59.2 °F97 %30.00 in1.5 miCalmOvercast
1:55 AM59.9 °F59.2 °F97 %30.00 in3.0 miCalmOvercast
2:15 AM59.5 °F59.0 °F98 %29.99 in3.0 miCalmOvercast
2:35 AM59.2 °F58.6 °F98 %29.99 in2.5 miCalmMostly Cloudy
2:55 AM58.6 °F58.1 °F98 %29.99 in1.5 miCalmMostly Cloudy
3:15 AM58.3 °F57.7 °F98 %29.98 in0.8 miCalmMostly Cloudy
3:35 AM58.1 °F57.4 °F97 %29.99 in0.5 miCalmFogFog
3:55 AM57.9 °F57.4 °F98 %30.00 in0.5 miCalmFogFog
4:15 AM58.1 °F57.4 °F97 %30.00 in0.5 miCalmFogFog
4:35 AM57.7 °F57.2 °F98 %30.00 in1.0 miCalmOvercast
4:55 AM58.1 °F57.6 °F98 %30.00 in4.0 miCalmMostly Cloudy
5:15 AM57.7 °F57.4 °F99 %30.01 in3.0 miCalmOvercast
5:35 AM57.2 °F56.7 °F98 %30.02 in2.5 miCalmOvercast
5:55 AM57.7 °F57.4 °F99 %30.03 in5.0 miCalmOvercast
6:15 AM58.3 °F57.7 °F98 %30.03 in5.0 miCalmOvercast
6:35 AM58.6 °F58.1 °F98 %30.04 in7.0 miCalmOvercast
6:55 AM59.0 °F58.3 °F97 %30.05 in7.0 miCalmOvercast
7:15 AM59.4 °F59.0 °F99 %30.06 in7.0 miCalmOvercast
7:35 AM59.4 °F59.0 °F99 %30.06 in7.0 miCalmOvercast
7:55 AM59.9 °F59.2 °F97 %30.07 in7.0 miCalmOvercast
8:15 AM60.4 °F59.9 °F98 %30.08 in10.0 miCalmOvercast
8:35 AM61.2 °F60.3 °F97 %30.09 in10.0 miCalmOvercast
9:15 AM62.1 °F60.4 °F94 %30.10 in10.0 miCalmOvercast
9:35 AM63.0 °F61.3 °F94 %30.10 in10.0 miCalmOvercast
9:55 AM64.2 °F61.5 °F91 %30.11 in10.0 miCalmOvercast
10:15 AM65.3 °F61.2 °F86 %30.11 in10.0 miCalmOvercast
10:35 AM66.4 °F61.7 °F85 %30.11 in10.0 miCalmOvercast
10:55 AM67.3 °F62.4 °F84 %30.11 in10.0 miCalmOvercast
11:15 AM68.9 °F62.6 °F80 %30.11 in10.0 miCalmOvercast
11:35 AM70.3 °F62.6 °F76 %30.11 in10.0 miCalmMostly Cloudy
12:15 PM71.6 °F61.7 °F71 %30.10 in10.0 miEast (80°)4.6 mphMostly Cloudy
12:35 PM73.0 °F61.9 °F68 %30.10 in10.0 miCalmScattered Clouds
12:55 PM73.2 °F61.5 °F67 %30.09 in10.0 miCalmScattered Clouds
1:15 PM74.1 °F61.0 °F63 %30.08 in10.0 miCalmScattered Clouds
1:35 PM75.2 °F61.3 °F62 %30.07 in10.0 miCalmScattered Clouds
2:15 PM75.2 °F61.7 °F63 %30.05 in10.0 miCalmMostly Cloudy
2:35 PM76.8 °F62.1 °F60 %30.04 in10.0 miCalmScattered Clouds
2:55 PM76.3 °F61.3 °F60 %30.03 in10.0 miCalmMostly Cloudy
3:15 PM77.0 °F61.3 °F58 %30.02 in10.0 miCalmScattered Clouds
3:35 PM78.1 °F61.3 °F56 %30.02 in10.0 miCalmScattered Clouds
3:55 PM78.1 °F61.5 °F57 %30.01 in10.0 miCalmScattered Clouds
4:15 PM78.1 °F60.8 °F55 %30.00 in10.0 miCalmClear
4:35 PM78.6 °F60.4 °F54 %30.00 in10.0 miCalmClear
4:55 PM77.0 °F59.9 °F55 %30.00 in10.0 miCalmClear
5:15 PM77.4 °F59.5 °F54 %30.00 in10.0 miCalmClear
5:35 PM77.2 °F58.8 °F53 %30.00 in10.0 miCalmClear
5:55 PM77.2 °F58.5 °F52 %30.00 in10.0 miCalmClear
6:15 PM77.0 °F58.6 °F53 %29.99 in10.0 miCalmClear
6:35 PM76.5 °F58.3 °F53 %29.99 in10.0 miCalmClear
6:55 PM74.5 °F63.7 °F69 %30.00 in10.0 miCalmClear
7:15 PM71.6 °F63.9 °F76 %30.00 in10.0 miCalmClear
7:35 PM70.7 °F63.5 °F78 %30.00 in10.0 miCalmClear
7:55 PM68.9 °F63.0 °F81 %30.00 in10.0 miCalmClear
8:15 PM68.0 °F62.4 °F82 %30.00 in10.0 miCalmClear
8:35 PM67.1 °F62.6 °F85 %30.01 in10.0 miCalmClear
8:55 PM66.4 °F62.8 °F88 %30.01 in10.0 miCalmClear
9:15 PM65.8 °F62.6 °F89 %30.02 in10.0 miCalmClear
9:35 PM65.3 °F62.4 °F90 %30.03 in10.0 miCalmClear
9:55 PM65.3 °F62.2 °F90 %30.04 in10.0 miCalmClear
10:15 PM65.1 °F61.7 °F89 %30.04 in10.0 miCalmClear
10:35 PM64.6 °F61.0 °F88 %30.05 in10.0 miCalmClear
10:55 PM64.4 °F61.2 °F89 %30.05 in10.0 miCalmClear
11:15 PM63.9 °F61.2 °F91 %30.05 in10.0 miCalmClear
11:35 PM63.7 °F60.8 °F90 %30.04 in10.0 miCalmClear
11:55 PM61.9 °F60.1 °F94 %30.04 in10.0 miCalmClear
Hourly data recorded from KORG, located miles away from Mauriceville, Texas







STORIES FROM OUR PARTNERS